Location: Newark
(41.0400°S, 62.7845°W)
Time: 11:57:38
(UTC+00:00)

STARLINK-3086 - Visible Passes

Search period start: 29 May 2022 00:00
Search period end: 08 June 2022 00:00
Orbit: 569 x 574 km, 70.0° (Epoch: 29 May)

Date Brightness Start Highest point End Pass type
(mag) Time Alt. Az. Time Alt. Az. Time Alt. Az.
29 May 5.9 22:44:53 10° SW 22:48:30 27° WNW 22:52:04 10° NNW visible
30 May 6.6 22:47:52 10° WSW 22:50:48 18° WNW 22:53:45 10° NNW visible
31 May 7.2 22:51:25 10° WSW 22:53:10 12° W 22:54:54 10° NW visible
02 Jun 4.4 21:16:27 10° SSW 21:20:40 62° WNW 21:24:51 10° NNE visible
03 Jun 5.4 21:19:22 10° SW 21:23:22 40° WNW 21:27:20 10° N visible
04 Jun 7.5 09:45:15 10° ENE 09:46:19 11° E 09:47:23 10° E visible
04 Jun 6.3 21:22:32 10° SW 21:26:07 27° WNW 21:29:40 10° NNW visible
05 Jun 6.9 09:46:20 10° NE 09:49:01 17° ENE 09:51:44 10° ESE visible
05 Jun 6.9 21:26:01 10° WSW 21:28:54 18° WNW 21:31:46 10° NNW visible
06 Jun 6.2 09:48:23 10° NNE 09:51:50 25° ENE 09:55:19 10° SE visible
06 Jun 7.3 21:30:12 10° W 21:31:44 12° W 21:33:15 10° WNW visible
07 Jun 5.3 09:50:53 10° N 09:54:47 37° ENE 09:58:44 10° SE visible
